{"data":{"norad_id":63756,"epoch":"2026-05-24T20:26:33.300384Z","epoch_age_seconds":81645,"freshness":"FRESH","line1":"1 63756U 25089F   26144.85177431  .00247454  00000+0  18697-2 0  9992","line2":"2 63756  43.0002 193.1802 0000395 350.2976   9.7884 15.70908197 62002","mean_motion":15.70908197,"eccentricity":3.95e-5,"inclination_deg":43.0002,"raan_deg":193.1802,"arg_perigee_deg":350.2976,"mean_anomaly_deg":9.7884,"bstar":0.0018697,"rev_number":6200,"period_min":91.666718828637,"perigee_km":356.03413856356,"apogee_km":356.56615909832,"semimajor_km":6734.4371488309,"source":"CELESTRAK","updated_at":"2026-05-25T13:38:20.103838Z"}}